Tracking 27079 objects as of 24-Mar-2023
HD Live streaming from Space Station
objects crossing your sky now

STARLINK-2693

Track STARLINK-2693 now!
10-day predictions
STARLINK-2693 is classified as:


NORAD ID: 48461
Int'l Code: 2021-040AK
Perigee: 553.4 km
Apogee: 555.3 km
Inclination: 53.1 °
Period: 95.6 minutes
Semi major axis: 6925 km
RCS: Unknown
Launch date: May 9, 2021
Source: United States (US)
Launch site: AIR FORCE EASTERN TEST RANGE (AFETR)
Your satellite tracking list
Your tracking list is empty




NASA's NSSDC Master Catalog

Two Line Element Set (TLE):
1 48461U 21040AK  23082.94812446 -.00000615  00000-0 -22364-4 0  9998
2 48461  53.0542   2.7411 0001409  89.6094 270.5056 15.06396363103527
Source of the keplerian elements: AFSPC